Location: Albany
(35.0000°S, 118.0000°E)
Time: 08:48:07
(UTC-04:00)

Transit 2A - Visible Passes

Search period start: 29 August 2016 00:00
Search period end: 08 September 2016 00:00
Orbit: 592 x 968 km, 66.7° (Epoch: 29 August)

Date Brightness Start Highest point End Pass type
(mag) Time Alt. Az. Time Alt. Az. Time Alt. Az.
29 Aug 7.0 06:56:40 10° NNE 06:59:11 20° NE 06:59:11 20° NE visible
29 Aug 8.3 08:39:04 10° WNW 08:39:48 14° WNW 08:39:48 14° WNW visible
29 Aug 8.8 15:47:01 10° SE 15:48:05 11° SE 15:49:10 10° ESE visible
29 Aug 5.9 17:26:52 10° SSW 17:31:45 89° ESE 17:37:08 10° NNE visible
30 Aug 7.4 06:24:14 10° NE 06:26:17 13° ENE 06:27:40 11° E visible
30 Aug 6.6 08:04:37 10° NW 08:08:17 43° W 08:08:17 43° W visible
30 Aug 6.5 16:53:00 10° SSW 16:57:47 58° ESE 17:03:04 10° NE visible
31 Aug 5.6 07:30:29 10° NNW 07:35:01 78° WSW 07:36:46 36° SSE visible
31 Aug 7.2 16:19:36 12° S 16:23:47 38° ESE 16:28:43 10° NE visible
01 Sep 5.5 06:56:35 10° NNW 07:01:06 64° ENE 07:05:12 11° SE visible
01 Sep 8.6 08:43:02 10° WSW 08:44:36 12° SW 08:45:47 11° SSW visible
01 Sep 7.9 15:47:30 19° SSE 15:49:44 26° ESE 15:54:06 10° ENE visible
01 Sep 6.6 17:28:24 10° SW 17:32:52 34° WNW 17:37:45 10° N visible
02 Sep 6.1 06:22:59 10° N 06:27:12 38° ENE 06:31:15 10° SE visible
02 Sep 8.2 08:07:25 10° W 08:10:26 18° SW 08:13:24 10° S visible
02 Sep 8.4 15:15:37 18° SE 15:15:38 18° SE 15:19:06 10° E visible
02 Sep 6.0 16:56:12 24° SW 16:58:59 53° WNW 17:04:16 10° N visible
03 Sep 7.6 07:32:32 10° WNW 07:36:19 27° WSW 07:40:02 10° S visible
03 Sep 5.8 16:24:31 71° SW 16:25:03 82° WNW 16:30:30 10° NNE visible
04 Sep 6.8 06:58:01 10° NW 07:02:16 41° WSW 07:06:25 10° SSE visible
04 Sep 7.1 15:53:00 38° NE 15:53:00 38° NE 15:56:29 10° NE visible
04 Sep 7.7 17:33:37 13° WNW 17:33:51 13° WNW 17:36:13 10° NW visible
05 Sep 5.9 06:23:48 10° NW 06:28:17 69° WSW 06:32:37 10° SSE visible
05 Sep 8.6 15:21:35 13° NE 15:21:35 13° NE 15:22:13 10° NE visible
05 Sep 7.7 17:02:12 16° NW 17:02:12 16° NW 17:03:58 10° NNW visible
06 Sep 8.7 07:37:14 10° WSW 07:37:57 10° SW 07:38:39 10° SW visible
06 Sep 8.3 16:30:49 11° N 16:30:49 11° N 16:30:58 10° N visible
07 Sep 8.3 07:01:02 10° W 07:03:44 16° SW 07:06:26 10° SSW visible
